EW8060 Weather Reports


Display with metric or nautical units.
time (UTC)temp
F
wind
direction
speed
MPH
gust
MPH
rain 1hr
in
rain 24hr
in
rain mn
in
humidity
%
barometer
mb
20260504050549 52 116 0.0 0.0 0.00 0.00 0.00 48 1017.9
20260504045528 52 100 0.0 0.0 0.00 0.00 0.00 50 1017.7
20260504044528 53 233 0.0 0.0 0.00 0.00 0.00 49 1017.6
20260504043528 53 233 0.0 0.0 0.00 0.00 0.00 49 1017.4
20260504042608 53 287 0.0 0.0 0.00 0.00 0.00 48 1017.5
20260504041527 53 124 0.0 0.0 0.00 0.00 0.00 48 1017.5
20260504040547 53 91 0.0 0.0 0.00 0.00 0.00 45 1017.5
20260504035547 52 88 0.0 0.0 0.00 0.00 0.00 46 1017.5
20260504034526 51 88 0.0 0.0 0.00 0.00 0.00 47 1017.5
20260504033526 50 78 0.0 0.0 0.00 0.00 0.00 49 1017.6
20260504032526 49 76 0.0 0.0 0.00 0.00 0.00 50 1017.6
20260504031525 49 76 0.0 0.0 0.00 0.00 0.00 52 1017.6
20260504030525 49 76 0.0 0.0 0.00 0.00 0.00 51 1017.7
20260504025525 49 76 0.0 0.0 0.00 0.00 0.00 52 1017.7
20260504024524 49 76 0.0 0.0 0.00 0.00 0.00 52 1017.8
20260504023524 50 76 0.0 0.0 0.00 0.00 0.00 51 1017.7
20260504022544 50 62 0.0 0.0 0.00 0.00 0.00 48 1017.6
20260504021523 52 73 0.0 0.0 0.00 0.00 0.00 46 1017.4
20260504020523 52 84 0.0 0.0 0.00 0.00 0.00 44 1017.3
20260504015523 51 84 0.0 0.0 0.00 0.00 0.00 44 1017.2
20260504014602 52 83 0.0 0.0 0.00 0.00 0.00 44 1017.3
20260504013542 53 83 0.0 0.0 0.00 0.00 0.00 44 1017.0
20260504012522 54 84 0.0 0.0 0.00 0.00 0.00 39 1017.0
20260504011523 53 84 0.0 0.0 0.00 0.00 0.00 40 1016.8
20260504010521 53 84 0.0 0.0 0.00 0.00 0.00 44 1016.7
20260504005520 55 125 0.0 0.0 0.00 0.00 0.00 39 1016.7
20260504004520 55 125 0.0 0.0 0.00 0.00 0.00 37 1016.5
20260504003540 55 125 0.0 0.0 0.00 0.00 0.00 37 1016.5
20260504002519 56 125 0.0 0.0 0.00 0.00 0.00 38 1016.4
20260504001519 57 125 0.0 0.0 0.00 0.00 0.00 37 1016.5
20260504000539 59 125 0.0 0.0 0.00 0.00 0.00 37 1016.6
20260503235520 61 125 0.0 0.0 0.00 0.00 0.00 33 1016.5
20260503234518 63 124 0.0 0.0 0.00 0.00 0.00 29 1016.4
20260503233517 63 88 0.0 0.0 0.00 0.00 0.00 27 1016.4
20260503232517 64 19 0.0 0.0 0.00 0.00 0.00 27 1016.5
20260503231557 64 88 0.0 0.0 0.00 0.00 0.00 26 1016.4
20260503230516 64 92 0.0 0.0 0.00 0.00 0.00 26 1016.3
20260503225517 65 58 0.0 0.0 0.00 0.00 0.00 26 1016.2
20260503224517 65 98 0.0 0.0 0.00 0.00 0.00 26 1016.3
20260503223516 65 134 0.0 0.0 0.00 0.00 0.00 26 1016.3
20260503222515 65 88 0.0 0.0 0.00 0.00 0.00 26 1016.4
20260503221515 65 84 0.0 0.0 0.00 0.00 0.00 26 1016.4
20260503220515 65 101 0.0 0.0 0.00 0.00 0.00 26 1016.5
20260503215516 65 103 0.0 0.0 0.00 0.00 0.00 26 1016.5
20260503214514 65 107 0.0 0.0 0.00 0.00 0.00 27 1016.7
20260503213534 65 76 0.0 0.0 0.00 0.00 0.00 26 1016.7
20260503212513 64 74 0.0 0.0 0.00 0.00 0.00 26 1016.7
20260503211513 65 5 0.0 0.0 0.00 0.00 0.00 28 1016.8
20260503210513 65 127 0.0 0.0 0.00 0.00 0.00 27 1016.8
20260503205512 64 192 0.0 0.0 0.00 0.00 0.00 28 1016.8
20260503204512 64 21 0.0 0.0 0.00 0.00 0.00 28 1016.9
20260503203512 64 68 0.0 0.0 0.00 0.00 0.00 26 1017.0
20260503202512 64 109 0.0 0.0 0.00 0.00 0.00 27 1017.0
20260503201512 63 16 0.0 0.0 0.00 0.00 0.00 27 1017.2
20260503200511 63 85 0.0 0.0 0.00 0.00 0.00 28 1017.4
20260503195531 63 201 0.0 0.0 0.00 0.00 0.00 30 1017.5
20260503194511 62 126 0.0 0.0 0.00 0.00 0.00 26 1017.8
20260503193510 63 40 0.0 0.0 0.00 0.00 0.00 28 1017.8
20260503192510 62 208 0.0 0.0 0.00 0.00 0.00 31 1017.9
20260503191510 62 169 0.0 0.0 0.00 0.00 0.00 31 1018.0
20260503190509 61 112 0.0 0.0 0.00 0.00 0.00 32 1018.2
20260503185509 60 67 0.0 0.0 0.00 0.00 0.00 29 1018.4
20260503184508 60 79 0.0 0.0 0.00 0.00 0.00 32 1018.6
20260503183508 60 126 0.0 0.0 0.00 0.00 0.00 32 1018.8
20260503182528 60 107 0.0 0.0 0.00 0.00 0.00 31 1018.9
20260503181507 60 182 0.0 0.0 0.00 0.00 0.00 32 1019.1
20260503180508 58 105 0.0 0.0 0.00 0.00 0.00 35 1019.1
20260503175509 58 73 0.0 0.0 0.00 0.00 0.00 33 1019.3
20260503174507 58 42 0.0 0.0 0.00 0.00 0.00 34 1019.3
20260503173506 58 168 0.0 0.0 0.00 0.00 0.00 34 1019.5
20260503172506 57 280 0.0 0.0 0.00 0.00 0.00 36 1019.5
20260503171506 57 98 0.0 0.0 0.00 0.00 0.00 36 1019.7
20260503170506 57 35 0.0 0.0 0.00 0.00 0.00 35 1019.9
20260503150502 51 73 0.0 0.0 0.00 0.00 0.00 43 1020.8
20260503130458 46 105 0.0 0.0 0.00 0.00 0.00 48 1020.8
20260503110454 42 74 0.0 0.0 0.00 0.00 0.00 57 1019.6
20260503090449 39 360 0.0 0.0 0.00 0.00 0.00 70 1017.7
20260503081448 40 66 0.0 0.0 0.00 0.00 0.00 69 1017.5
20260503080447 41 66 0.0 0.0 0.00 0.00 0.00 66 1017.4